Time,TemperatureF,DewpointF,PressureIn,WindDirection,WindDirectionDegrees,WindSpeedMPH,WindSpeedGustMPH,Humidity,HourlyPrecipIn,Conditions,Clouds,dailyrainin,SoftwareType,DateUTC
2013-03-02 00:00:00,7.0,2.7,30.42,South,180,1.0,3.0,82,0.00,,,-99.99,Weather View 32 v60,2013-03-02 06:00:00,
2013-03-02 00:05:00,6.0,1.4,30.42,SW,225,1.0,3.0,81,0.00,,,-99.99,Weather View 32 v60,2013-03-02 06:05:00,
2013-03-02 00:10:00,6.0,1.4,30.42,WSW,248,0.0,3.0,81,0.00,,,-99.99,Weather View 32 v60,2013-03-02 06:10:00,
2013-03-02 00:15:00,6.0,1.7,30.42,WSW,248,0.0,3.0,82,0.00,,,-99.99,Weather View 32 v60,2013-03-02 06:15:00,
2013-03-02 00:20:00,5.0,0.5,30.42,WSW,248,0.0,3.0,81,0.00,,,-99.99,Weather View 32 v60,2013-03-02 06:20:00,
2013-03-02 00:25:00,5.0,0.7,30.42,SW,225,0.0,3.0,82,0.00,,,-99.99,Weather View 32 v60,2013-03-02 06:25:00,
2013-03-02 00:30:00,5.0,0.7,30.42,WSW,248,0.0,3.0,82,0.00,,,-99.99,Weather View 32 v60,2013-03-02 06:30:00,
2013-03-02 00:35:00,5.0,0.7,30.42,SW,225,0.0,3.0,82,0.00,,,-99.99,Weather View 32 v60,2013-03-02 06:35:00,
2013-03-02 00:40:00,5.0,0.7,30.43,SW,225,0.0,3.0,82,0.00,,,-99.99,Weather View 32 v60,2013-03-02 06:40:00,
2013-03-02 00:45:00,5.0,0.7,30.43,SW,225,0.0,3.0,82,0.00,,,-99.99,Weather View 32 v60,2013-03-02 06:45:00,
2013-03-02 00:50:00,4.0,-0.3,30.43,SW,225,0.0,3.0,82,0.00,,,-99.99,Weather View 32 v60,2013-03-02 06:50:00,
2013-03-02 00:55:00,4.0,-0.3,30.43,SW,225,0.0,3.0,82,0.00,,,-99.99,Weather View 32 v60,2013-03-02 06:55:00,
2013-03-02 01:00:00,3.0,-1.2,30.43,SW,225,0.0,1.0,82,0.00,,,-99.99,Weather View 32 v60,2013-03-02 07:00:00,
2013-03-02 01:05:00,3.0,-1.2,30.42,SW,225,0.0,1.0,82,0.00,,,-99.99,Weather View 32 v60,2013-03-02 07:05:00,
2013-03-02 01:10:00,3.0,-1.2,30.43,WSW,248,0.0,1.0,82,0.00,,,-99.99,Weather View 32 v60,2013-03-02 07:10:00,
2013-03-02 01:15:00,2.0,-2.2,30.43,WSW,248,0.0,1.0,82,0.00,,,-99.99,Weather View 32 v60,2013-03-02 07:15:00,
2013-03-02 01:20:00,2.0,-2.2,30.43,SW,225,0.0,1.0,82,0.00,,,-99.99,Weather View 32 v60,2013-03-02 07:20:00,
2013-03-02 01:25:00,2.0,-2.2,30.42,SSW,202,0.0,1.0,82,0.00,,,-99.99,Weather View 32 v60,2013-03-02 07:25:00,
2013-03-02 01:30:00,2.0,-2.0,30.42,SW,225,0.0,1.0,83,0.00,,,-99.99,Weather View 32 v60,2013-03-02 07:30:00,
2013-03-02 01:35:00,1.0,-3.2,30.42,SW,225,0.0,1.0,82,0.00,,,-99.99,Weather View 32 v60,2013-03-02 07:35:00,
2013-03-02 01:40:00,1.0,-3.2,30.43,WSW,248,0.0,0.0,82,0.00,,,-99.99,Weather View 32 v60,2013-03-02 07:40:00,
2013-03-02 01:45:00,0.0,-4.2,30.43,WSW,248,0.0,0.0,82,0.00,,,-99.99,Weather View 32 v60,2013-03-02 07:45:00,
2013-03-02 01:50:00,0.0,-4.2,30.43,SW,225,0.0,0.0,82,0.00,,,-99.99,Weather View 32 v60,2013-03-02 07:50:00,
2013-03-02 01:55:00,0.0,-4.2,30.43,SW,225,0.0,0.0,82,0.00,,,-99.99,Weather View 32 v60,2013-03-02 07:55:00,
2013-03-02 02:00:00,0.0,-4.2,30.43,SW,225,0.0,0.0,82,0.00,,,-99.99,Weather View 32 v60,2013-03-02 08:00:00,
2013-03-02 02:05:00,0.0,-4.2,30.43,SW,225,0.0,0.0,82,0.00,,,-99.99,Weather View 32 v60,2013-03-02 08:05:00,
2013-03-02 02:10:00,0.0,-3.9,30.42,SSW,202,0.0,0.0,83,0.00,,,-99.99,Weather View 32 v60,2013-03-02 08:10:00,
2013-03-02 02:15:00,0.0,-3.9,30.42,SW,225,0.0,0.0,83,0.00,,,-99.99,Weather View 32 v60,2013-03-02 08:15:00,
2013-03-02 02:20:00,-1.0,-5.2,30.43,SW,225,0.0,0.0,82,0.00,,,-99.99,Weather View 32 v60,2013-03-02 08:20:00,
2013-03-02 02:25:00,-1.0,-5.2,30.43,WSW,248,0.0,0.0,82,0.00,,,-99.99,Weather View 32 v60,2013-03-02 08:25:00,
2013-03-02 02:30:00,-2.0,-6.1,30.43,WSW,248,0.0,0.0,82,0.00,,,-99.99,Weather View 32 v60,2013-03-02 08:30:00,
2013-03-02 02:35:00,-2.0,-6.1,30.43,WSW,248,0.0,0.0,82,0.00,,,-99.99,Weather View 32 v60,2013-03-02 08:35:00,
2013-03-02 02:40:00,-2.0,-6.1,30.43,WSW,248,0.0,0.0,82,0.00,,,-99.99,Weather View 32 v60,2013-03-02 08:40:00,
2013-03-02 02:45:00,-2.0,-6.1,30.43,WSW,248,0.0,0.0,82,0.00,,,-99.99,Weather View 32 v60,2013-03-02 08:45:00,
2013-03-02 02:50:00,-2.0,-6.1,30.43,WSW,248,0.0,0.0,82,0.00,,,-99.99,Weather View 32 v60,2013-03-02 08:50:00,
2013-03-02 02:55:00,-2.0,-6.1,30.44,SW,225,0.0,0.0,82,0.00,,,-99.99,Weather View 32 v60,2013-03-02 08:55:00,
2013-03-02 03:00:00,-3.0,-7.1,30.44,SW,225,0.0,0.0,82,0.00,,,-99.99,Weather View 32 v60,2013-03-02 09:00:00,
2013-03-02 03:05:00,-2.0,-6.1,30.43,SW,225,0.0,0.0,82,0.00,,,-99.99,Weather View 32 v60,2013-03-02 09:05:00,
2013-03-02 03:15:00,-3.0,-7.1,30.43,SW,225,0.0,0.0,82,0.00,,,-99.99,Weather View 32 v60,2013-03-02 09:15:00,
2013-03-02 03:20:00,-3.0,-7.1,30.43,SW,225,0.0,0.0,82,0.00,,,-99.99,Weather View 32 v60,2013-03-02 09:20:00,
2013-03-02 03:25:00,-4.0,-8.1,30.43,SW,225,0.0,0.0,82,0.00,,,-99.99,Weather View 32 v60,2013-03-02 09:25:00,
2013-03-02 03:30:00,-4.0,-8.1,30.43,SW,225,0.0,0.0,82,0.00,,,-99.99,Weather View 32 v60,2013-03-02 09:30:00,
2013-03-02 03:35:00,-4.0,-8.1,30.44,SW,225,0.0,0.0,82,0.00,,,-99.99,Weather View 32 v60,2013-03-02 09:35:00,
2013-03-02 03:45:00,-5.0,-9.1,30.44,SW,225,0.0,0.0,82,0.00,,,-99.99,Weather View 32 v60,2013-03-02 09:45:00,
2013-03-02 03:55:00,-5.0,-9.1,30.45,SW,225,0.0,0.0,82,0.00,,,-99.99,Weather View 32 v60,2013-03-02 09:55:00,
2013-03-02 04:00:00,-5.0,-9.1,30.45,SW,225,0.0,0.0,82,0.00,,,-99.99,Weather View 32 v60,2013-03-02 10:00:00,
2013-03-02 04:05:00,-5.0,-9.1,30.45,SW,225,0.0,0.0,82,0.00,,,-99.99,Weather View 32 v60,2013-03-02 10:05:00,
2013-03-02 04:15:00,-6.0,-10.1,30.45,SW,225,0.0,0.0,82,0.00,,,-99.99,Weather View 32 v60,2013-03-02 10:15:00,
2013-03-02 04:20:00,-6.0,-10.1,30.45,SW,225,0.0,0.0,82,0.00,,,-99.99,Weather View 32 v60,2013-03-02 10:20:00,
2013-03-02 04:25:00,-6.0,-10.1,30.45,SW,225,0.0,0.0,82,0.00,,,-99.99,Weather View 32 v60,2013-03-02 10:25:00,
2013-03-02 04:30:00,-6.0,-10.1,30.44,SW,225,0.0,0.0,82,0.00,,,-99.99,Weather View 32 v60,2013-03-02 10:30:00,
2013-03-02 04:40:00,-4.0,-8.1,30.44,SW,225,0.0,0.0,82,0.00,,,-99.99,Weather View 32 v60,2013-03-02 10:40:00,
2013-03-02 04:50:00,-5.0,-9.1,30.44,SW,225,0.0,0.0,82,0.00,,,-99.99,Weather View 32 v60,2013-03-02 10:50:00,
2013-03-02 05:10:00,-5.0,-9.1,30.44,SW,225,0.0,0.0,82,0.00,,,-99.99,Weather View 32 v60,2013-03-02 11:10:00,
2013-03-02 05:35:00,-6.0,-10.1,30.44,SSW,202,0.0,0.0,82,0.00,,,-99.99,Weather View 32 v60,2013-03-02 11:35:00,
2013-03-02 05:40:00,-6.0,-10.1,30.45,SSW,202,0.0,0.0,82,0.00,,,-99.99,Weather View 32 v60,2013-03-02 11:40:00,
2013-03-02 05:45:00,-6.0,-10.1,30.44,SSE,158,0.0,0.0,82,0.00,,,-99.99,Weather View 32 v60,2013-03-02 11:45:00,
2013-03-02 05:50:00,-6.0,-10.1,30.44,SSW,202,0.0,0.0,82,0.00,,,-99.99,Weather View 32 v60,2013-03-02 11:50:00,
2013-03-02 05:55:00,-6.0,-10.1,30.44,SSW,202,0.0,0.0,82,0.00,,,-99.99,Weather View 32 v60,2013-03-02 11:55:00,
2013-03-02 06:05:00,-6.0,-10.1,30.44,SSW,202,0.0,0.0,82,0.00,,,-99.99,Weather View 32 v60,2013-03-02 12:05:00,
2013-03-02 06:10:00,-6.0,-10.1,30.44,South,180,0.0,0.0,82,0.00,,,-99.99,Weather View 32 v60,2013-03-02 12:10:00,
2013-03-02 06:15:00,-6.0,-10.1,30.44,SSW,202,0.0,0.0,82,0.00,,,-99.99,Weather View 32 v60,2013-03-02 12:15:00,
2013-03-02 06:20:00,-6.0,-10.1,30.45,SSW,202,0.0,0.0,82,0.00,,,-99.99,Weather View 32 v60,2013-03-02 12:20:00,
2013-03-02 06:25:00,-6.0,-10.1,30.45,SSW,202,0.0,0.0,82,0.00,,,-99.99,Weather View 32 v60,2013-03-02 12:25:00,
2013-03-02 06:30:00,-6.0,-10.1,30.45,SSW,202,0.0,0.0,82,0.00,,,-99.99,Weather View 32 v60,2013-03-02 12:30:00,
2013-03-02 06:35:00,-6.0,-10.1,30.45,SSW,202,0.0,0.0,82,0.00,,,-99.99,Weather View 32 v60,2013-03-02 12:35:00,
2013-03-02 06:45:00,-7.0,-11.3,30.45,WSW,248,0.0,0.0,81,0.00,,,-99.99,Weather View 32 v60,2013-03-02 12:45:00,
2013-03-02 06:50:00,-7.0,-11.3,30.46,SW,225,0.0,0.0,81,0.00,,,-99.99,Weather View 32 v60,2013-03-02 12:50:00,
2013-03-02 06:55:00,-7.0,-11.3,30.46,SW,225,0.0,0.0,81,0.00,,,-99.99,Weather View 32 v60,2013-03-02 12:55:00,
2013-03-02 07:00:00,-7.0,-11.3,30.45,SW,225,0.0,0.0,81,0.00,,,-99.99,Weather View 32 v60,2013-03-02 13:00:00,
2013-03-02 07:05:00,-7.0,-11.0,30.45,South,180,0.0,0.0,82,0.00,,,-99.99,Weather View 32 v60,2013-03-02 13:05:00,
2013-03-02 07:10:00,-6.0,-9.8,30.45,SW,225,0.0,0.0,83,0.00,,,-99.99,Weather View 32 v60,2013-03-02 13:10:00,
2013-03-02 07:15:00,-6.0,-10.1,30.45,SSW,202,0.0,0.0,82,0.00,,,-99.99,Weather View 32 v60,2013-03-02 13:15:00,
2013-03-02 07:20:00,-6.0,-10.1,30.45,SW,225,0.0,0.0,82,0.00,,,-99.99,Weather View 32 v60,2013-03-02 13:20:00,
2013-03-02 07:25:00,-6.0,-10.1,30.45,SSW,202,0.0,0.0,82,0.00,,,-99.99,Weather View 32 v60,2013-03-02 13:25:00,
2013-03-02 07:35:00,-6.0,-10.1,30.45,SW,225,0.0,1.0,82,0.00,,,-99.99,Weather View 32 v60,2013-03-02 13:35:00,
2013-03-02 07:40:00,-6.0,-10.1,30.45,SW,225,0.0,1.0,82,0.00,,,-99.99,Weather View 32 v60,2013-03-02 13:40:00,
2013-03-02 07:45:00,-5.0,-9.1,30.45,WSW,248,0.0,1.0,82,0.00,,,-99.99,Weather View 32 v60,2013-03-02 13:45:00,
2013-03-02 07:50:00,-5.0,-8.8,30.45,SSW,202,1.0,1.0,83,0.00,,,-99.99,Weather View 32 v60,2013-03-02 13:50:00,
2013-03-02 07:55:00,-4.0,-7.8,30.45,SSW,202,0.0,1.0,83,0.00,,,-99.99,Weather View 32 v60,2013-03-02 13:55:00,
2013-03-02 08:00:00,-3.0,-6.9,30.45,WSW,248,0.0,1.0,83,0.00,,,-99.99,Weather View 32 v60,2013-03-02 14:00:00,
2013-03-02 08:05:00,-3.0,-6.9,30.45,SSW,202,0.0,1.0,83,0.00,,,-99.99,Weather View 32 v60,2013-03-02 14:05:00,
2013-03-02 08:10:00,-2.0,-5.9,30.45,SE,135,1.0,1.0,83,0.00,,,-99.99,Weather View 32 v60,2013-03-02 14:10:00,
2013-03-02 08:15:00,0.0,-3.7,30.45,South,180,1.0,2.0,84,0.00,,,-99.99,Weather View 32 v60,2013-03-02 14:15:00,
2013-03-02 08:20:00,2.0,-1.5,30.45,SSW,202,0.0,2.0,85,0.00,,,-99.99,Weather View 32 v60,2013-03-02 14:20:00,
2013-03-02 08:25:00,4.0,0.5,30.45,WSW,248,0.0,2.0,85,0.00,,,-99.99,Weather View 32 v60,2013-03-02 14:25:00,
2013-03-02 08:30:00,7.0,3.5,30.45,WSW,248,0.0,2.0,85,0.00,,,-99.99,Weather View 32 v60,2013-03-02 14:30:00,
2013-03-02 08:35:00,10.0,6.4,30.44,WNW,292,1.0,2.0,85,0.00,,,-99.99,Weather View 32 v60,2013-03-02 14:35:00,
2013-03-02 08:40:00,12.0,8.4,30.44,NW,315,1.0,2.0,85,0.00,,,-99.99,Weather View 32 v60,2013-03-02 14:40:00,
2013-03-02 08:45:00,14.0,10.3,30.44,WSW,248,0.0,2.0,85,0.00,,,-99.99,Weather View 32 v60,2013-03-02 14:45:00,
2013-03-02 08:50:00,16.0,12.0,30.44,SW,225,0.0,2.0,84,0.00,,,-99.99,Weather View 32 v60,2013-03-02 14:50:00,
2013-03-02 08:55:00,17.0,12.7,30.44,SW,225,0.0,2.0,83,0.00,,,-99.99,Weather View 32 v60,2013-03-02 14:55:00,
2013-03-02 09:00:00,18.0,13.4,30.44,SW,225,0.0,2.0,82,0.00,,,-99.99,Weather View 32 v60,2013-03-02 15:00:00,
2013-03-02 09:05:00,18.0,12.6,30.43,South,180,1.0,2.0,79,0.00,,,-99.99,Weather View 32 v60,2013-03-02 15:05:00,
2013-03-02 09:10:00,18.0,12.0,30.43,SSE,158,1.0,2.0,77,0.00,,,-99.99,Weather View 32 v60,2013-03-02 15:10:00,
2013-03-02 09:20:00,19.0,12.1,30.43,South,180,1.0,3.0,74,0.00,,,-99.99,Weather View 32 v60,2013-03-02 15:20:00,
2013-03-02 09:25:00,19.0,11.5,30.43,South,180,1.0,3.0,72,0.00,,,-99.99,Weather View 32 v60,2013-03-02 15:25:00,
2013-03-02 09:30:00,20.0,12.1,30.43,SSE,158,2.0,3.0,71,0.00,,,-99.99,Weather View 32 v60,2013-03-02 15:30:00,
2013-03-02 09:40:00,22.0,12.7,30.42,SSW,202,1.0,3.0,67,0.00,,,-99.99,Weather View 32 v60,2013-03-02 15:40:00,
2013-03-02 09:45:00,23.0,13.3,30.42,South,180,2.0,3.0,66,0.00,,,-99.99,Weather View 32 v60,2013-03-02 15:45:00,
2013-03-02 09:50:00,23.0,12.3,30.42,South,180,3.0,3.0,63,0.00,,,-99.99,Weather View 32 v60,2013-03-02 15:50:00,
2013-03-02 09:55:00,22.0,10.6,30.41,South,180,2.0,3.0,61,0.00,,,-99.99,Weather View 32 v60,2013-03-02 15:55:00,
2013-03-02 10:00:00,22.0,11.0,30.41,SSE,158,2.0,3.0,62,0.00,,,-99.99,Weather View 32 v60,2013-03-02 16:00:00,
2013-03-02 10:10:00,23.0,11.9,30.41,SSW,202,1.0,3.0,62,0.00,,,-99.99,Weather View 32 v60,2013-03-02 16:10:00,
2013-03-02 10:15:00,23.0,11.6,30.41,SSW,202,2.0,4.0,61,0.00,,,-99.99,Weather View 32 v60,2013-03-02 16:15:00,
2013-03-02 10:20:00,24.0,12.9,30.41,SSW,202,2.0,5.0,62,0.00,,,-99.99,Weather View 32 v60,2013-03-02 16:20:00,
2013-03-02 10:25:00,23.0,10.8,30.40,SSW,202,3.0,5.0,59,0.00,,,-99.99,Weather View 32 v60,2013-03-02 16:25:00,
2013-03-02 10:30:00,23.0,10.8,30.40,SSW,202,1.0,5.0,59,0.00,,,-99.99,Weather View 32 v60,2013-03-02 16:30:00,
2013-03-02 10:35:00,23.0,11.2,30.40,SSW,202,3.0,5.0,60,0.00,,,-99.99,Weather View 32 v60,2013-03-02 16:35:00,
2013-03-02 10:40:00,23.0,10.8,30.39,South,180,3.0,5.0,59,0.00,,,-99.99,Weather View 32 v60,2013-03-02 16:40:00,
2013-03-02 10:45:00,23.0,10.4,30.39,SSE,158,2.0,5.0,58,0.00,,,-99.99,Weather View 32 v60,2013-03-02 16:45:00,
2013-03-02 10:50:00,23.0,10.4,30.39,SSE,158,3.0,5.0,58,0.00,,,-99.99,Weather View 32 v60,2013-03-02 16:50:00,
2013-03-02 10:55:00,22.0,9.9,30.39,South,180,3.0,5.0,59,0.00,,,-99.99,Weather View 32 v60,2013-03-02 16:55:00,
2013-03-02 11:00:00,23.0,11.2,30.39,WSW,248,4.0,5.0,60,0.00,,,-99.99,Weather View 32 v60,2013-03-02 17:00:00,
2013-03-02 11:05:00,23.0,10.4,30.38,WSW,248,3.0,6.0,58,0.00,,,-99.99,Weather View 32 v60,2013-03-02 17:05:00,
2013-03-02 11:10:00,22.0,10.2,30.39,SSW,202,3.0,6.0,60,0.00,,,-99.99,Weather View 32 v60,2013-03-02 17:10:00,
2013-03-02 11:15:00,23.0,10.8,30.38,SSW,202,4.0,6.0,59,0.00,,,-99.99,Weather View 32 v60,2013-03-02 17:15:00,
2013-03-02 11:25:00,23.0,10.4,30.38,SW,225,6.0,6.0,58,0.00,,,-99.99,Weather View 32 v60,2013-03-02 17:25:00,
2013-03-02 11:30:00,23.0,10.4,30.38,SSE,158,3.0,6.0,58,0.00,,,-99.99,Weather View 32 v60,2013-03-02 17:30:00,
2013-03-02 11:35:00,24.0,11.4,30.37,SSW,202,2.0,6.0,58,0.00,,,-99.99,Weather View 32 v60,2013-03-02 17:35:00,
2013-03-02 11:40:00,24.0,11.4,30.37,WSW,248,5.0,7.0,58,0.00,,,-99.99,Weather View 32 v60,2013-03-02 17:40:00,
2013-03-02 11:45:00,24.0,11.0,30.37,SW,225,5.0,7.0,57,0.00,,,-99.99,Weather View 32 v60,2013-03-02 17:45:00,
2013-03-02 11:50:00,24.0,11.0,30.36,West,270,1.0,7.0,57,0.00,,,-99.99,Weather View 32 v60,2013-03-02 17:50:00,
2013-03-02 11:55:00,24.0,11.0,30.36,South,180,6.0,7.0,57,0.00,,,-99.99,Weather View 32 v60,2013-03-02 17:55:00,
2013-03-02 12:00:00,23.0,10.0,30.37,South,180,3.0,7.0,57,0.00,,,-99.99,Weather View 32 v60,2013-03-02 18:00:00,
2013-03-02 12:05:00,24.0,11.0,30.36,SW,225,3.0,7.0,57,0.00,,,-99.99,Weather View 32 v60,2013-03-02 18:05:00,
2013-03-02 12:10:00,24.0,11.0,30.36,SW,225,4.0,7.0,57,0.00,,,-99.99,Weather View 32 v60,2013-03-02 18:10:00,
2013-03-02 12:15:00,25.0,11.5,30.36,SSW,202,4.0,7.0,56,0.00,,,-99.99,Weather View 32 v60,2013-03-02 18:15:00,
2013-03-02 12:20:00,25.0,11.1,30.35,SSW,202,4.0,7.0,55,0.00,,,-99.99,Weather View 32 v60,2013-03-02 18:20:00,
2013-03-02 12:25:00,25.0,11.5,30.35,SW,225,5.0,7.0,56,0.00,,,-99.99,Weather View 32 v60,2013-03-02 18:25:00,
2013-03-02 12:35:00,25.0,11.1,30.34,SSW,202,4.0,7.0,55,0.00,,,-99.99,Weather View 32 v60,2013-03-02 18:35:00,
2013-03-02 12:40:00,25.0,11.1,30.34,SSW,202,3.0,8.0,55,0.00,,,-99.99,Weather View 32 v60,2013-03-02 18:40:00,
2013-03-02 12:45:00,26.0,12.0,30.34,SSW,202,3.0,8.0,55,0.00,,,-99.99,Weather View 32 v60,2013-03-02 18:45:00,
2013-03-02 12:50:00,27.0,12.6,30.34,SW,225,5.0,8.0,54,0.00,,,-99.99,Weather View 32 v60,2013-03-02 18:50:00,
2013-03-02 12:55:00,26.0,10.8,30.34,WSW,248,5.0,8.0,52,0.00,,,-99.99,Weather View 32 v60,2013-03-02 18:55:00,
2013-03-02 13:00:00,25.0,10.3,30.34,SSE,158,3.0,8.0,53,0.00,,,-99.99,Weather View 32 v60,2013-03-02 19:00:00,
2013-03-02 13:05:00,26.0,11.2,30.33,SW,225,3.0,8.0,53,0.00,,,-99.99,Weather View 32 v60,2013-03-02 19:05:00,
2013-03-02 13:10:00,26.0,11.2,30.33,SSW,202,1.0,8.0,53,0.00,,,-99.99,Weather View 32 v60,2013-03-02 19:10:00,
2013-03-02 13:15:00,27.0,11.7,30.33,South,180,3.0,8.0,52,0.00,,,-99.99,Weather View 32 v60,2013-03-02 19:15:00,
2013-03-02 13:25:00,26.0,9.9,30.33,WSW,248,2.0,8.0,50,0.00,,,-99.99,Weather View 32 v60,2013-03-02 19:25:00,
2013-03-02 13:30:00,27.0,11.3,30.33,SW,225,1.0,8.0,51,0.00,,,-99.99,Weather View 32 v60,2013-03-02 19:30:00,
2013-03-02 13:40:00,27.0,10.8,30.32,SW,225,6.0,8.0,50,0.00,,,-99.99,Weather View 32 v60,2013-03-02 19:40:00,
2013-03-02 13:45:00,27.0,10.8,30.32,SW,225,5.0,8.0,50,0.00,,,-99.99,Weather View 32 v60,2013-03-02 19:45:00,
2013-03-02 13:50:00,27.0,10.4,30.32,SSW,202,4.0,8.0,49,0.00,,,-99.99,Weather View 32 v60,2013-03-02 19:50:00,
2013-03-02 13:55:00,28.0,10.8,30.32,SW,225,3.0,8.0,48,0.00,,,-99.99,Weather View 32 v60,2013-03-02 19:55:00,
2013-03-02 14:00:00,28.0,10.8,30.32,SSW,202,3.0,8.0,48,0.00,,,-99.99,Weather View 32 v60,2013-03-02 20:00:00,
2013-03-02 14:10:00,29.0,11.3,30.31,SSW,202,5.0,8.0,47,0.00,,,-99.99,Weather View 32 v60,2013-03-02 20:10:00,
2013-03-02 14:15:00,29.0,10.8,30.31,SSW,202,3.0,8.0,46,0.00,,,-99.99,Weather View 32 v60,2013-03-02 20:15:00,
2013-03-02 14:25:00,29.0,10.8,30.31,SW,225,3.0,8.0,46,0.00,,,-99.99,Weather View 32 v60,2013-03-02 20:25:00,
2013-03-02 14:30:00,29.0,10.8,30.30,SSW,202,5.0,8.0,46,0.00,,,-99.99,Weather View 32 v60,2013-03-02 20:30:00,
2013-03-02 14:35:00,30.0,11.7,30.30,South,180,4.0,8.0,46,0.00,,,-99.99,Weather View 32 v60,2013-03-02 20:35:00,
2013-03-02 14:40:00,30.0,10.7,30.30,SW,225,6.0,7.0,44,0.00,,,-99.99,Weather View 32 v60,2013-03-02 20:40:00,
2013-03-02 14:45:00,30.0,10.7,30.30,WSW,248,3.0,8.0,44,0.00,,,-99.99,Weather View 32 v60,2013-03-02 20:45:00,
2013-03-02 14:55:00,30.0,10.2,30.30,SSW,202,4.0,8.0,43,0.00,,,-99.99,Weather View 32 v60,2013-03-02 20:55:00,
2013-03-02 15:00:00,29.0,9.3,30.29,SSW,202,5.0,8.0,43,0.00,,,-99.99,Weather View 32 v60,2013-03-02 21:00:00,
2013-03-02 15:10:00,29.0,9.3,30.29,WSW,248,3.0,8.0,43,0.00,,,-99.99,Weather View 32 v60,2013-03-02 21:10:00,
2013-03-02 15:15:00,29.0,9.3,30.29,SSW,202,4.0,8.0,43,0.00,,,-99.99,Weather View 32 v60,2013-03-02 21:15:00,
2013-03-02 15:20:00,30.0,10.2,30.29,SW,225,3.0,8.0,43,0.00,,,-99.99,Weather View 32 v60,2013-03-02 21:20:00,
2013-03-02 15:30:00,29.0,9.3,30.29,SW,225,2.0,8.0,43,0.00,,,-99.99,Weather View 32 v60,2013-03-02 21:30:00,
2013-03-02 15:35:00,29.0,9.3,30.29,SW,225,1.0,8.0,43,0.00,,,-99.99,Weather View 32 v60,2013-03-02 21:35:00,
2013-03-02 15:40:00,30.0,9.7,30.29,SSW,202,3.0,8.0,42,0.00,,,-99.99,Weather View 32 v60,2013-03-02 21:40:00,
2013-03-02 15:45:00,30.0,9.7,30.29,SSW,202,4.0,8.0,42,0.00,,,-99.99,Weather View 32 v60,2013-03-02 21:45:00,
2013-03-02 15:55:00,28.0,8.4,30.28,SW,225,4.0,8.0,43,0.00,,,-99.99,Weather View 32 v60,2013-03-02 21:55:00,
2013-03-02 16:00:00,28.0,8.9,30.28,SW,225,1.0,8.0,44,0.00,,,-99.99,Weather View 32 v60,2013-03-02 22:00:00,
2013-03-02 16:05:00,28.0,9.4,30.28,SW,225,3.0,8.0,45,0.00,,,-99.99,Weather View 32 v60,2013-03-02 22:05:00,
2013-03-02 16:10:00,28.0,8.9,30.28,SSW,202,4.0,8.0,44,0.00,,,-99.99,Weather View 32 v60,2013-03-02 22:10:00,
2013-03-02 16:15:00,27.0,8.0,30.29,SSW,202,3.0,8.0,44,0.00,,,-99.99,Weather View 32 v60,2013-03-02 22:15:00,
2013-03-02 16:20:00,27.0,8.5,30.29,SW,225,0.0,8.0,45,0.00,,,-99.99,Weather View 32 v60,2013-03-02 22:20:00,
2013-03-02 16:25:00,27.0,8.5,30.29,NNW,338,3.0,8.0,45,0.00,,,-99.99,Weather View 32 v60,2013-03-02 22:25:00,
2013-03-02 16:30:00,27.0,8.5,30.29,WNW,292,3.0,8.0,45,0.00,,,-99.99,Weather View 32 v60,2013-03-02 22:30:00,
2013-03-02 16:40:00,27.0,9.4,30.29,WNW,292,1.0,8.0,47,0.00,,,-99.99,Weather View 32 v60,2013-03-02 22:40:00,
2013-03-02 16:45:00,27.0,9.4,30.29,NW,315,2.0,8.0,47,0.00,,,-99.99,Weather View 32 v60,2013-03-02 22:45:00,
2013-03-02 16:50:00,27.0,9.4,30.28,NNW,338,2.0,8.0,47,0.00,,,-99.99,Weather View 32 v60,2013-03-02 22:50:00,
2013-03-02 16:55:00,27.0,9.4,30.28,West,270,1.0,7.0,47,0.00,,,-99.99,Weather View 32 v60,2013-03-02 22:55:00,
2013-03-02 17:00:00,27.0,9.9,30.28,West,270,3.0,7.0,48,0.00,,,-99.99,Weather View 32 v60,2013-03-02 23:00:00,
2013-03-02 17:05:00,27.0,9.9,30.28,WNW,292,3.0,7.0,48,0.00,,,-99.99,Weather View 32 v60,2013-03-02 23:05:00,
2013-03-02 17:10:00,27.0,9.9,30.28,NW,315,2.0,7.0,48,0.00,,,-99.99,Weather View 32 v60,2013-03-02 23:10:00,
2013-03-02 17:15:00,26.0,9.0,30.28,NW,315,1.0,7.0,48,0.00,,,-99.99,Weather View 32 v60,2013-03-02 23:15:00,
2013-03-02 17:20:00,26.0,9.0,30.28,WNW,292,3.0,7.0,48,0.00,,,-99.99,Weather View 32 v60,2013-03-02 23:20:00,
2013-03-02 17:25:00,26.0,9.0,30.28,SW,225,0.0,7.0,48,0.00,,,-99.99,Weather View 32 v60,2013-03-02 23:25:00,
2013-03-02 17:30:00,26.0,9.0,30.27,NW,315,3.0,7.0,48,0.00,,,-99.99,Weather View 32 v60,2013-03-02 23:30:00,
2013-03-02 17:35:00,26.0,9.0,30.27,WSW,248,1.0,7.0,48,0.00,,,-99.99,Weather View 32 v60,2013-03-02 23:35:00,
2013-03-02 17:45:00,26.0,9.9,30.27,WNW,292,2.0,6.0,50,0.00,,,-99.99,Weather View 32 v60,2013-03-02 23:45:00,
2013-03-02 17:50:00,26.0,9.9,30.27,West,270,2.0,6.0,50,0.00,,,-99.99,Weather View 32 v60,2013-03-02 23:50:00,
2013-03-02 17:55:00,25.0,9.0,30.28,West,270,1.0,6.0,50,0.00,,,-99.99,Weather View 32 v60,2013-03-02 23:55:00,
2013-03-02 18:00:00,25.0,9.0,30.28,WNW,292,2.0,6.0,50,0.00,,,-99.99,Weather View 32 v60,2013-03-03 00:00:00,
2013-03-02 18:05:00,25.0,9.0,30.27,WSW,248,0.0,6.0,50,0.00,,,-99.99,Weather View 32 v60,2013-03-03 00:05:00,
2013-03-02 18:10:00,25.0,9.4,30.27,West,270,2.0,6.0,51,0.00,,,-99.99,Weather View 32 v60,2013-03-03 00:10:00,
2013-03-02 18:15:00,25.0,9.4,30.27,WSW,248,1.0,6.0,51,0.00,,,-99.99,Weather View 32 v60,2013-03-03 00:15:00,
2013-03-02 18:20:00,24.0,8.9,30.27,West,270,2.0,4.0,52,0.00,,,-99.99,Weather View 32 v60,2013-03-03 00:20:00,
2013-03-02 18:25:00,24.0,9.3,30.27,NW,315,3.0,3.0,53,0.00,,,-99.99,Weather View 32 v60,2013-03-03 00:25:00,
2013-03-02 18:30:00,24.0,9.3,30.27,West,270,2.0,3.0,53,0.00,,,-99.99,Weather View 32 v60,2013-03-03 00:30:00,
2013-03-02 18:35:00,24.0,9.3,30.27,SW,225,1.0,3.0,53,0.00,,,-99.99,Weather View 32 v60,2013-03-03 00:35:00,
2013-03-02 18:45:00,24.0,9.3,30.27,WSW,248,2.0,3.0,53,0.00,,,-99.99,Weather View 32 v60,2013-03-03 00:45:00,
2013-03-02 18:50:00,24.0,9.3,30.27,WSW,248,1.0,3.0,53,0.00,,,-99.99,Weather View 32 v60,2013-03-03 00:50:00,
2013-03-02 18:55:00,23.0,8.4,30.27,WSW,248,1.0,3.0,53,0.00,,,-99.99,Weather View 32 v60,2013-03-03 00:55:00,
2013-03-02 19:00:00,23.0,8.8,30.27,West,270,2.0,3.0,54,0.00,,,-99.99,Weather View 32 v60,2013-03-03 01:00:00,
2013-03-02 19:05:00,23.0,8.8,30.27,WSW,248,2.0,3.0,54,0.00,,,-99.99,Weather View 32 v60,2013-03-03 01:05:00,
2013-03-02 19:10:00,23.0,8.8,30.28,WSW,248,1.0,3.0,54,0.00,,,-99.99,Weather View 32 v60,2013-03-03 01:10:00,
2013-03-02 19:15:00,23.0,8.8,30.28,WSW,248,0.0,3.0,54,0.00,,,-99.99,Weather View 32 v60,2013-03-03 01:15:00,
2013-03-02 19:20:00,23.0,8.8,30.28,West,270,1.0,3.0,54,0.00,,,-99.99,Weather View 32 v60,2013-03-03 01:20:00,
2013-03-02 19:25:00,22.0,8.3,30.28,West,270,1.0,3.0,55,0.00,,,-99.99,Weather View 32 v60,2013-03-03 01:25:00,
2013-03-02 19:30:00,22.0,8.7,30.28,WSW,248,1.0,3.0,56,0.00,,,-99.99,Weather View 32 v60,2013-03-03 01:30:00,
2013-03-02 19:35:00,22.0,8.7,30.28,WSW,248,1.0,3.0,56,0.00,,,-99.99,Weather View 32 v60,2013-03-03 01:35:00,
2013-03-02 19:40:00,22.0,8.7,30.27,WSW,248,0.0,3.0,56,0.00,,,-99.99,Weather View 32 v60,2013-03-03 01:40:00,
2013-03-02 19:50:00,21.0,7.8,30.27,WSW,248,0.0,3.0,56,0.00,,,-99.99,Weather View 32 v60,2013-03-03 01:50:00,
2013-03-02 19:55:00,21.0,8.2,30.27,WSW,248,0.0,3.0,57,0.00,,,-99.99,Weather View 32 v60,2013-03-03 01:55:00,
2013-03-02 20:03:00,21.0,8.2,30.27,SW,225,0.0,3.0,57,0.00,,,-99.99,Weather View 32 v60,2013-03-03 02:03:00,
2013-03-02 20:10:00,21.0,8.5,30.27,WSW,248,0.0,2.0,58,0.00,,,-99.99,Weather View 32 v60,2013-03-03 02:10:00,
2013-03-02 20:20:00,20.0,7.6,30.27,SW,225,0.0,2.0,58,0.00,,,-99.99,Weather View 32 v60,2013-03-03 02:20:00,
2013-03-02 20:25:00,20.0,7.6,30.27,SW,225,0.0,2.0,58,0.00,,,-99.99,Weather View 32 v60,2013-03-03 02:25:00,
2013-03-02 20:30:00,19.0,7.0,30.27,SW,225,0.0,2.0,59,0.00,,,-99.99,Weather View 32 v60,2013-03-03 02:30:00,
2013-03-02 20:40:00,19.0,7.0,30.26,SW,225,0.0,1.0,59,0.00,,,-99.99,Weather View 32 v60,2013-03-03 02:40:00,
2013-03-02 20:45:00,18.0,6.5,30.26,SW,225,0.0,1.0,60,0.00,,,-99.99,Weather View 32 v60,2013-03-03 02:45:00,
2013-03-02 20:50:00,18.0,6.8,30.26,SW,225,0.0,1.0,61,0.00,,,-99.99,Weather View 32 v60,2013-03-03 02:50:00,
2013-03-02 20:55:00,18.0,7.2,30.26,SW,225,0.0,0.0,62,0.00,,,-99.99,Weather View 32 v60,2013-03-03 02:55:00,
2013-03-02 21:00:00,18.0,6.8,30.26,SW,225,0.0,0.0,61,0.00,,,-99.99,Weather View 32 v60,2013-03-03 03:00:00,
2013-03-02 21:05:00,17.0,6.2,30.25,SW,225,0.0,0.0,62,0.00,,,-99.99,Weather View 32 v60,2013-03-03 03:05:00,
2013-03-02 21:10:00,17.0,6.2,30.26,SW,225,0.0,0.0,62,0.00,,,-99.99,Weather View 32 v60,2013-03-03 03:10:00,
2013-03-02 21:15:00,16.0,5.3,30.26,SSW,202,0.0,0.0,62,0.00,,,-99.99,Weather View 32 v60,2013-03-03 03:15:00,
2013-03-02 21:20:00,16.0,5.6,30.26,SW,225,0.0,0.0,63,0.00,,,-99.99,Weather View 32 v60,2013-03-03 03:20:00,
2013-03-02 21:25:00,16.0,6.0,30.26,SW,225,0.0,0.0,64,0.00,,,-99.99,Weather View 32 v60,2013-03-03 03:25:00,
2013-03-02 21:30:00,16.0,6.0,30.26,SW,225,0.0,0.0,64,0.00,,,-99.99,Weather View 32 v60,2013-03-03 03:30:00,
2013-03-02 21:35:00,16.0,6.3,30.26,SSW,202,0.0,0.0,65,0.00,,,-99.99,Weather View 32 v60,2013-03-03 03:35:00,
2013-03-02 21:45:00,15.0,5.4,30.26,SSW,202,0.0,0.0,65,0.00,,,-99.99,Weather View 32 v60,2013-03-03 03:45:00,
2013-03-02 21:50:00,15.0,5.7,30.26,SSW,202,1.0,1.0,66,0.00,,,-99.99,Weather View 32 v60,2013-03-03 03:50:00,
2013-03-02 21:55:00,15.0,5.4,30.26,SW,225,0.0,1.0,65,0.00,,,-99.99,Weather View 32 v60,2013-03-03 03:55:00,
2013-03-02 22:00:00,14.0,4.7,30.26,SW,225,0.0,1.0,66,0.00,,,-99.99,Weather View 32 v60,2013-03-03 04:00:00,
2013-03-02 22:05:00,14.0,4.7,30.26,SW,225,0.0,1.0,66,0.00,,,-99.99,Weather View 32 v60,2013-03-03 04:05:00,
2013-03-02 22:10:00,13.0,3.8,30.26,SW,225,0.0,1.0,66,0.00,,,-99.99,Weather View 32 v60,2013-03-03 04:10:00,
2013-03-02 22:15:00,13.0,4.1,30.26,SW,225,0.0,1.0,67,0.00,,,-99.99,Weather View 32 v60,2013-03-03 04:15:00,
2013-03-02 22:20:00,13.0,4.1,30.26,SW,225,0.0,1.0,67,0.00,,,-99.99,Weather View 32 v60,2013-03-03 04:20:00,
2013-03-02 22:25:00,12.0,3.2,30.26,SW,225,0.0,1.0,67,0.00,,,-99.99,Weather View 32 v60,2013-03-03 04:25:00,
2013-03-02 22:30:00,12.0,3.8,30.26,SW,225,0.0,1.0,69,0.00,,,-99.99,Weather View 32 v60,2013-03-03 04:30:00,
2013-03-02 22:35:00,12.0,3.8,30.25,SW,225,0.0,1.0,69,0.00,,,-99.99,Weather View 32 v60,2013-03-03 04:35:00,
2013-03-02 22:40:00,12.0,3.8,30.25,SSW,202,1.0,1.0,69,0.00,,,-99.99,Weather View 32 v60,2013-03-03 04:40:00,
2013-03-02 22:45:00,11.0,3.1,30.25,SE,135,1.0,2.0,70,0.00,,,-99.99,Weather View 32 v60,2013-03-03 04:45:00,
2013-03-02 22:50:00,11.0,3.8,30.25,SE,135,2.0,2.0,72,0.00,,,-99.99,Weather View 32 v60,2013-03-03 04:50:00,
2013-03-02 22:55:00,11.0,3.8,30.25,SSW,202,1.0,2.0,72,0.00,,,-99.99,Weather View 32 v60,2013-03-03 04:55:00,
2013-03-02 23:00:00,8.0,2.0,30.25,SSW,202,1.0,2.0,76,0.00,,,-99.99,Weather View 32 v60,2013-03-03 05:00:00,
2013-03-02 23:05:00,8.0,2.0,30.25,SSW,202,0.0,2.0,76,0.00,,,-99.99,Weather View 32 v60,2013-03-03 05:05:00,
2013-03-02 23:10:00,8.0,1.7,30.25,South,180,1.0,2.0,75,0.00,,,-99.99,Weather View 32 v60,2013-03-03 05:10:00,
2013-03-02 23:15:00,7.0,1.0,30.25,SSE,158,1.0,2.0,76,0.00,,,-99.99,Weather View 32 v60,2013-03-03 05:15:00,
2013-03-02 23:20:00,7.0,1.3,30.25,SSE,158,1.0,2.0,77,0.00,,,-99.99,Weather View 32 v60,2013-03-03 05:20:00,
2013-03-02 23:25:00,7.0,1.6,30.24,SSW,202,0.0,2.0,78,0.00,,,-99.99,Weather View 32 v60,2013-03-03 05:25:00,
2013-03-02 23:30:00,7.0,1.3,30.24,SW,225,0.0,2.0,77,0.00,,,-99.99,Weather View 32 v60,2013-03-03 05:30:00,
2013-03-02 23:35:00,7.0,1.3,30.24,SW,225,0.0,2.0,77,0.00,,,-99.99,Weather View 32 v60,2013-03-03 05:35:00,
2013-03-02 23:40:00,7.0,1.3,30.24,SW,225,0.0,2.0,77,0.00,,,-99.99,Weather View 32 v60,2013-03-03 05:40:00,
2013-03-02 23:45:00,6.0,0.4,30.24,SW,225,0.0,2.0,77,0.00,,,-99.99,Weather View 32 v60,2013-03-03 05:45:00,
2013-03-02 23:50:00,6.0,0.4,30.24,SSW,202,0.0,2.0,77,0.00,,,-99.99,Weather View 32 v60,2013-03-03 05:50:00,
2013-03-02 23:55:00,6.0,0.6,30.24,SSE,158,0.0,2.0,78,0.00,,,-99.99,Weather View 32 v60,2013-03-03 05:55:00,